FW1511 Weather Reports


time (UTC)temp
F
wind
direction
speed
knots
gust
knots
rain 1hr
in
rain 24hr
in
rain mn
in
humidity
%
barometer
mb
20260504001847 88 130 1.7 4.3 0.00 0.00 0.00 38 1008.1
20260504001620 87 131 0.0 4.3 0.00 0.00 0.00 39 1008.5
20260504000948 87 117 2.6 5.2 0.00 0.00 0.00 37 1008.1
20260504000048 87 119 1.7 6.1 0.00 0.00 0.00 34 1008.2
20260503235147 88 121 1.7 5.2 0.00 0.00 0.00 37 1008.2
20260503234600 88 113 0.9 4.3 0.00 0.00 0.00 35 1008.7
20260503234248 88 114 1.7 5.2 0.00 0.00 0.00 36 1008.3
20260503233001 87 118 0.9 6.1 0.00 0.00 0.00 37 1008.9
20260503232447 88 133 1.7 3.5 0.00 0.00 0.00 36 1008.6
20260503231600 87 117 0.9 5.2 0.00 0.00 0.00 37 1009.0
20260503231548 87 128 0.9 5.2 0.00 0.00 0.00 37 1008.6
20260503230648 87 130 2.6 5.2 0.00 0.00 0.00 38 1008.6
20260503230001 85 174 1.7 7.8 0.00 0.00 0.00 39 1009.2
20260503224601 85 139 3.5 7.0 0.00 0.00 0.00 39 1009.3
20260503223947 86 121 1.7 8.7 0.00 0.00 0.00 40 1008.9
20260503223047 87 122 1.7 8.7 0.00 0.00 0.00 40 1009.1
20260503223001 86 124 2.6 5.2 0.00 0.00 0.00 40 1009.4
20260503222147 86 121 1.7 7.8 0.00 0.00 0.00 40 1009.2
20260503221600 85 139 2.6 7.8 0.00 0.00 0.00 39 1009.8
20260503221248 86 121 2.6 7.8 0.00 0.00 0.00 42 1009.4
20260503220347 85 114 1.7 7.0 0.00 0.00 0.00 40 1009.5
20260503220001 84 121 1.7 7.0 0.00 0.00 0.00 40 1009.9
20260503215448 85 110 2.6 7.0 0.00 0.00 0.00 40 1009.4
20260503214602 83 108 0.9 7.0 0.00 0.00 0.00 41 1010.1
20260503214548 84 107 3.5 7.0 0.00 0.00 0.00 42 1009.6
20260503213647 83 109 2.6 7.8 0.00 0.00 0.00 40 1009.7
20260503213003 83 118 3.5 7.8 0.00 0.00 0.00 43 1010.2
20260503212748 83 109 2.6 7.0 0.00 0.00 0.00 41 1010.0
20260503211847 83 113 2.6 7.8 0.00 0.00 0.00 40 1009.9
20260503211601 83 116 1.7 7.8 0.00 0.00 0.00 41 1010.5
20260503210947 83 117 3.5 8.7 0.00 0.00 0.00 43 1010.1
20260503210047 83 108 3.5 7.8 0.00 0.00 0.00 40 1010.3
20260503210001 82 180 1.7 7.8 0.00 0.00 0.00 41 1010.7
20260503205148 82 110 2.6 9.6 0.00 0.00 0.00 42 1010.3
20260503204601 82 87 3.5 7.8 0.00 0.00 0.00 41 1010.9
20260503203348 83 128 2.6 7.0 0.00 0.00 0.00 42 1010.4
20260503203002 82 104 0.9 6.1 0.00 0.00 0.00 43 1010.8
20260503202448 82 122 1.7 7.0 0.00 0.00 0.00 41 1010.6
20260503201601 82 151 0.0 7.8 0.00 0.00 0.00 44 1011.0
20260503201548 83 123 1.7 7.8 0.00 0.00 0.00 44 1010.5
20260503200001 83 131 0.0 2.6 0.00 0.00 0.00 43 1011.1
20260503195748 83 134 0.9 2.6 0.00 0.00 0.00 43 1010.9
20260503194848 82 100 1.7 3.5 0.00 0.00 0.00 44 1011.1
20260503194601 81 79 0.9 4.3 0.00 0.00 0.00 46 1011.6
20260503193948 80 120 2.6 7.0 0.00 0.00 0.00 46 1011.2
20260503193048 80 124 1.7 7.8 0.00 0.00 0.00 46 1011.3
20260503193003 80 125 3.5 7.8 0.00 0.00 0.00 43 1011.8
20260503192148 80 120 1.7 8.7 0.00 0.00 0.00 46 1011.4
20260503191609 79 115 0.9 8.7 0.00 0.00 0.00 48 1011.9
20260503190348 79 127 1.7 6.1 0.00 0.00 0.00 47 1011.6
20260503190001 79 142 1.7 6.1 0.00 0.00 0.00 46 1012.2
20260503185448 79 126 0.9 5.2 0.00 0.00 0.00 47 1011.5
20260503184612 78 129 0.9 3.5 0.00 0.00 0.00 50 1012.0
20260503184548 78 139 1.7 3.5 0.00 0.00 0.00 50 1011.5
20260503183648 77 114 2.6 11.3 0.00 0.00 0.00 51 1011.6
20260503183002 76 98 3.5 11.3 0.00 0.00 0.00 50 1012.1
20260503182748 76 120 1.7 7.0 0.00 0.00 0.00 52 1011.6
20260503181848 75 106 2.6 7.0 0.00 0.00 0.00 53 1011.7
20260503181611 75 105 2.6 7.0 0.00 0.00 0.00 53 1012.3
20260503180948 74 97 1.7 7.0 0.00 0.00 0.00 55 1011.9
20260503180048 74 110 0.9 6.1 0.00 0.00 0.00 55 1011.8
20260503180003 73 99 1.7 6.1 0.00 0.00 0.00 55 1012.4
20260503175148 73 107 2.6 7.8 0.00 0.00 0.00 57 1011.8
20260503174603 72 104 0.0 8.7 0.00 0.00 0.00 59 1012.4
20260503174248 72 100 1.7 8.7 0.00 0.00 0.00 56 1012.1
20260503173347 72 96 1.7 7.0 0.00 0.00 0.00 59 1012.0
20260503173001 71 79 0.9 4.3 0.00 0.00 0.00 60 1012.5
20260503171600 70 106 0.9 7.8 0.00 0.00 0.00 62 1012.6
20260503171548 71 101 2.6 7.0 0.00 0.00 0.00 62 1012.2
20260503170648 70 108 1.7 7.0 0.00 0.00 0.00 60 1012.3
20260503150948 58 0 0.0 0.0 0.00 0.00 0.00 83 1012.5
20260503131248 45 0 0.0 0.0 0.00 0.00 0.00 96 1012.3
20260503130348 45 0 0.0 0.0 0.00 0.00 0.00 95 1012.2
20260503081630 51 89 0.0 0.0 0.00 0.00 0.00 87 1013.3
20260503080648 52 0 0.0 0.0 0.00 0.00 0.00 88 1013.0
20260503072149 53 0 0.0 0.0 0.00 0.00 0.00 84 1013.2
20260503071602 53 89 0.0 0.0 0.00 0.00 0.00 83 1013.6
20260503071248 54 0 0.0 0.0 0.00 0.00 0.00 83 1013.1
20260503070348 54 0 0.0 0.0 0.00 0.00 0.00 83 1013.0
20260503054505 57 72 0.0 0.0 0.00 0.00 0.00 75 1013.3
20260503054248 58 0 0.0 0.0 0.00 0.00 0.00 74 1012.8
20260503053348 59 0 0.0 0.0 0.00 0.00 0.00 72 1013.0
20260503053103 59 72 0.0 0.0 0.00 0.00 0.00 70 1013.5
20260503052448 60 0 0.0 0.0 0.00 0.00 0.00 69 1013.0
20260503051549 61 0 0.0 0.0 0.00 0.00 0.00 68 1012.9
20260503051502 60 72 0.0 0.0 0.00 0.00 0.00 67 1013.4
20260503050648 61 0 0.0 0.0 0.00 0.00 0.00 68 1012.8
20260503050104 61 71 0.0 0.0 0.00 0.00 0.00 67 1013.3
20260503045748 62 0 0.0 0.0 0.00 0.00 0.00 67 1012.8
20260503044849 64 0 0.0 0.0 0.00 0.00 0.00 64 1012.7
20260503044503 64 72 0.0 0.0 0.00 0.00 0.00 62 1013.1
20260503043948 65 0 0.0 0.0 0.00 0.00 0.00 60 1012.7
20260503043115 65 72 0.0 0.0 0.00 0.00 0.00 60 1013.1
20260503043049 66 0 0.0 0.9 0.00 0.00 0.00 60 1012.5
20260503042148 66 0 0.0 1.7 0.00 0.00 0.00 59 1012.3
20260503041501 66 80 0.0 1.7 0.00 0.00 0.00 59 1012.8
20260503040348 67 80 0.0 0.9 0.00 0.00 0.00 58 1012.2
20260503040103 67 81 0.0 1.7 0.00 0.00 0.00 57 1012.5
20260503035449 68 93 0.9 2.6 0.00 0.00 0.00 56 1011.8
20260503034549 69 97 1.7 3.5 0.00 0.00 0.00 54 1011.6
20260503034502 69 72 0.9 3.5 0.00 0.00 0.00 54 1012.2
20260503033649 70 99 1.7 6.1 0.00 0.00 0.00 53 1011.7
20260503033140 70 102 0.9 3.5 0.00 0.00 0.00 53 1012.0
20260503032749 70 96 0.9 3.5 0.00 0.00 0.00 52 1011.5
20260503031502 71 105 0.0 4.3 0.00 0.00 0.00 51 1011.8
20260503030114 72 92 0.0 3.5 0.00 0.00 0.00 50 1011.7
20260503030049 72 104 1.7 3.5 0.00 0.00 0.00 51 1011.2
20260503025148 73 101 0.9 6.1 0.00 0.00 0.00 50 1011.1
20260503024502 73 75 1.7 6.1 0.00 0.00 0.00 49 1011.7
20260503024248 73 0 0.0 4.3 0.00 0.00 0.00 50 1011.2
20260503023349 74 0 0.0 2.6 0.00 0.00 0.00 49 1011.0
20260503023115 74 109 0.0 4.3 0.00 0.00 0.00 50 1011.5
20260503022449 75 106 0.9 4.3 0.00 0.00 0.00 49 1010.9
20260503021548 76 107 0.9 4.3 0.00 0.00 0.00 46 1011.0
20260503021505 76 111 0.0 4.3 0.00 0.00 0.00 47 1011.4
20260503020649 77 113 1.7 3.5 0.00 0.00 0.00 46 1011.0
20260503020104 77 108 0.9 8.7 0.00 0.00 0.00 46 1011.4
20260503015749 77 106 1.7 8.7 0.00 0.00 0.00 46 1011.1
20260503014849 77 105 1.7 6.1 0.00 0.00 0.00 45 1010.9
20260503014503 77 103 0.9 6.1 0.00 0.00 0.00 45 1011.3
20260503013949 77 104 1.7 6.1 0.00 0.00 0.00 46 1010.9
20260503013102 77 100 1.7 7.0 0.00 0.00 0.00 44 1011.4
20260503013049 78 110 1.7 8.7 0.00 0.00 0.00 44 1011.0
20260503012149 78 121 2.6 8.7 0.00 0.00 0.00 44 1011.1
20260503011504 77 131 2.6 7.0 0.00 0.00 0.00 45 1011.5
20260503011249 78 116 2.6 8.7 0.00 0.00 0.00 46 1011.0
20260503010349 78 115 2.6 5.2 0.00 0.00 0.00 45 1011.0
20260503010105 77 136 0.9 5.2 0.00 0.00 0.00 46 1011.5
20260503005449 78 123 2.6 7.8 0.00 0.00 0.00 46 1011.0
20260503004549 77 119 1.7 9.6 0.00 0.00 0.00 45 1011.1
20260503004503 77 117 3.5 9.6 0.00 0.00 0.00 44 1011.6
20260503003649 78 118 2.6 7.0 0.00 0.00 0.00 46 1011.3
20260503003102 77 111 1.7 7.8 0.00 0.00 0.00 48 1011.8
20260503002749 77 108 3.5 7.8 0.00 0.00 0.00 48 1011.3